Regional Weather Roundup
Issued by NWS

Home | Current Version | Previous Version | Text Only | Print | Product List | Glossary On
Versions: 1 2 3 4 5 6 7 8 9 10 11 12 13 14 15 16 17 18 19 20 21 22 23 24 25 26 27 28 29 30 31 32 33 34 35 36 37 38 39 40 41 42 43 44 45 46 47 48 49 50
000
ASUS44 KFWD 230703
RWRTX
NORTH TEXAS HOURLY WEATHER ROUNDUP
NATIONAL WEATHER SERVICE FORT WORTH TX
200 AM CDT TUE SEP 23 2014

NOTE: "FAIR" INDICATES FEW OR NO CLOUDS BELOW 12,000 FEET WITH NO
SIGNIFICANT WEATHER AND/OR OBSTRUCTIONS TO VISIBILITY.

TXZ118-119-230800-
DALLAS/FORT WORTH METROPLEX

CITY           SKY/WX    TMP DP  RH WIND       PRES   REMARKS
DFW AIRPORT    PTCLDY    69  52  54 SE5       30.16R
DALLAS LOVE    PTCLDY    69  53  56 E6        30.15S
FTW MEACHAM    CLEAR     69  53  56 E6        30.16R
DAL-EXECUTIVE  PTCLDY    66  52  60 E6        30.16R
FTW-ALLIANCE   PTCLDY    62  52  69 CALM      30.16R
FTW-NAS-JRB    CLEAR     72  51  47 E5        30.20S
FTW-SPINKS     CLEAR     65  52  62 CALM      30.18S
ARLINGTON      PTCLDY    67  51  56 E3        30.16R
GRAND PRAIRIE  PTCLDY    68  51  53 E3        30.17S
ADDISON        PTCLDY    69  52  54 E7        30.18R
MESQUITE       PTCLDY    65  53  65 E5        30.17R
LANCASTER      PTCLDY    62  51  66 CALM      30.17S
$$

TXZ091>094-102>105-117-120-121-131>134-230800-
NORTH CENTRAL TEXAS

CITY           SKY/WX    TMP DP  RH WIND       PRES   REMARKS
SHRMAN/DENISON CLEAR     62  55  77 E5        30.19S
GAINESVILLE    PTCLDY    61  54  77 E3        30.19S
BOWIE          PTCLDY    60  54  79 SE3       30.17S
BRIDGEPORT     CLEAR     61  51  70 CALM      30.18S
DECATUR        PTCLDY    64  52  65 SE5       30.18R
DENTON         PTCLDY    64  53  67 CALM      30.17R
MCKINNEY       CLEAR     61  52  72 CALM      30.17R
GREENVILLE     CLEAR     61  52  72 CALM      30.17S
ROCKWALL       PTCLDY    62  54  75 E5        30.15S
TERRELL        PTCLDY    66  53  63 E5        30.17R
WAXAHACHIE     PTCLDY    63  50  63 NE3       30.18S
CLEBURNE       CLEAR     66  54  63 E9        30.18S
GRANBURY       CLEAR     69  53  55 E5        30.18S
$$

TXZ083>090-098>101-113>116-127>130-139>142-154-155-230800-
WESTERN NORTH TEXAS

CITY           SKY/WX    TMP DP  RH WIND       PRES   REMARKS
WICHITA FALLS  CLEAR     63  54  72 MISG      30.16R
WF-KICKAPOO    CLEAR     64  52  65 E5        30.17S
VERNON         CLEAR     67  53  62 CALM      30.18R
ABILENE        CLOUDY    72  53  51 SE7       30.18R
ABILENE-DYESS  CLOUDY    73  51  45 SE12      30.16S
BRECKENRIDGE   PTCLDY    70  49  46 SE8       30.16S
MINERAL WELLS  CLEAR     65  51  60 SE6       30.16R
STEPHENVILLE   PTCLDY    67  50  54 E3        30.20S
COMANCHE       CLEAR     67  53  59 SE3       30.18R
BROWNWOOD      CLOUDY    70  57  64 E3        30.17S
COLEMAN        PTCLDY    70  59  69 CALM      30.17S
BRADY          CLEAR     70  61  73 E7        30.16F
$$

TXZ143>147-156>162-174-175-230800-
CENTRAL TEXAS

CITY           SKY/WX    TMP DP  RH WIND       PRES   REMARKS
WACO           CLEAR     63  54  72 NE5       30.15R
WACO-MCGREGOR  CLEAR     70  50  49 E7        30.16R
HILLSBORO      CLEAR     66  51  58 E7        30.16R
CORSICANA      PTCLDY    66  53  63 E5        30.16S
MEXIA          PTCLDY    64  54  69 NE3       30.14S
HEARNE         PTCLDY    69  56  64 NE6       30.13R
CAMERON        PTCLDY    71  56  60 NE3       30.13R
TEMPLE         CLEAR     70  52  52 NE8       30.14R
KILLEEN        PTCLDY    73  54  49 E6        30.15R
KILLEEN-SKYLRK CLEAR     72  52  49 E7        30.15R
FORT HOOD      CLEAR     72  55  55 E3        30.15R
HAMILTON       CLEAR     67  54  61 SE5       30.18R
LAMPASAS       CLEAR     71  61  71 NE3       30.15S
$$

TXZ095>097-106>112-122>126-135>138-148>153-164>167-230800-
EAST TEXAS

CITY           SKY/WX    TMP DP  RH WIND       PRES   REMARKS
PARIS          CLEAR     61  50  67 E6        30.19S
SULPHUR SPRNGS CLEAR     60  53  77 CALM      30.19R
MOUNT PLEASANT CLEAR     59  56  89 CALM      30.19R
GILMER         CLEAR     63  55  77 CALM      30.18S
MINEOLA        PTCLDY    57  54  88 CALM      30.18R
TYLER          PTCLDY    64  54  69 E6        30.16R
LONGVIEW       CLEAR     62  54  74 E3        30.15S
MARSHALL       CLEAR     68  58  70 CALM      30.18S
ATHENS         PTCLDY    63  54  72 NE3       30.15S
PALESTINE      MOCLDY    66  55  65 NE6       30.15F
JACKSONVILLE   PTCLDY    64  53  68 NE3       30.17S
HENDERSON      CLEAR     64  54  70 NE3       30.16S
NACOGDOCHES    CLEAR     64  52  63 N3        30.14S
LUFKIN         PTCLDY    66  55  67 NE3       30.13S
$$

SUPPLEMENTAL OBSERVATIONS (CENTRAL)

CITY           SKY/WX    TMP DP  RH WIND       PRES   REMARKS
$$

SUPPLEMENTAL OBSERVATIONS (WEST)

CITY           SKY/WX    TMP DP  RH WIND       PRES   REMARKS
$$

SUPPLEMENTAL OBSERVATIONS (EAST)

CITY           SKY/WX    TMP DP  RH WIND       PRES   REMARKS
$$

SUPPLEMENTAL OBSERVATIONS ARE A COLLECTION OF AUTOMATED INSTRUMENTS
THAT ARE MAINTAINED BY A VARIETY OF FEDERAL AND STATE AGENCIES.
CERTAIN ELEMENTS...SUCH AS HUMIDITY VALUES AND SUSTAINED WIND
SPEEDS...MAY BE APPROXIMATED.



USA.gov is the U.S. government's official web portal to all federal, state and local government web resources and services.